This demonstration page uses our WeatherBlox Daily Observations layout. Learn more.

Left ArrowRight Arrow

Hourly Observations for October 7, 2016

Temp ( °F °C ) Dew Point ( °F °C ) Humidity (%) Winds ( mph kmh ) Pressure ( in mb ) Visibility ( mi km ) Precip ( " mm )
12:16 am 00:16 Clear 66 19 59 15 78 78 SSE 5 7 30.12 1020 10 16.0934 N/A
12:36 am 00:36 Clear 66 19 59 15 78 78 SE 6 9 30.09 1019 10 16.0934 N/A
12:56 am 00:56 Clear 66 19 59 15 78 78 SE 7 11 30.09 1019 10 16.0934 N/A
1:16 am 01:16 Clear 66 19 59 15 78 78 SSE 3 6 30.09 1019 10 16.0934 N/A
1:36 am 01:36 Clear 64 18 59 15 83 83 SE 3 6 30.09 1019 10 16.0934 N/A
1:55 am 01:55 Clear 64 18 59 15 83 83 SSE 3 6 30.09 1019 10 16.0934 N/A
2:16 am 02:16 Clear 63 17 59 15 88 88 N N/A 30.12 1020 10 16.0934 N/A
2:36 am 02:36 Clear 64 18 59 15 83 83 N N/A 30.09 1019 10 16.0934 N/A
2:56 am 02:56 Clear 63 17 59 15 88 88 N N/A 30.12 1020 10 16.0934 N/A
3:16 am 03:16 Clear 63 17 59 15 88 88 N N/A 30.12 1020 10 16.0934 N/A
3:36 am 03:36 Clear 61 16 57 14 88 88 N N/A 30.09 1019 10 16.0934 N/A
3:56 am 03:56 Clear 61 16 57 14 88 88 N N/A 30.09 1019 10 16.0934 N/A
4:16 am 04:16 Clear 59 15 57 14 94 94 N N/A 30.09 1019 10 16.0934 N/A
4:36 am 04:36 Clear 57 14 57 14 100 100 N N/A 30.09 1019 10 16.0934 N/A
4:56 am 04:56 Clear 57 14 55 13 94 94 N N/A 30.09 1019 10 16.0934 N/A
5:16 am 05:16 Clear 57 14 55 13 94 94 N N/A 30.09 1019 10 16.0934 N/A
5:36 am 05:36 Clear 55 13 55 13 100 100 N N/A 30.09 1019 7 11.26538 N/A
5:56 am 05:56 Clear 55 13 55 13 100 100 N N/A 30.09 1019 7 11.26538 N/A
6:16 am 06:16 Clear 55 13 54 12 94 94 ESE 5 7 30.09 1019 5 8.0467 N/A
6:36 am 06:36 Clear 59 15 57 14 94 94 SE 3 6 30.09 1019 10 16.0934 N/A
6:56 am 06:56 Clear 59 15 55 13 88 88 SE 6 9 30.09 1019 10 16.0934 N/A
7:16 am 07:16 Clear 57 14 55 13 94 94 N N/A 30.09 1019 10 16.0934 N/A
7:35 am 07:35 Clear 57 14 55 13 94 94 N N/A 30.09 1019 10 16.0934 N/A
7:56 am 07:56 Sunny 59 15 55 13 88 88 SE 5 7 30.09 1019 10 16.0934 N/A
8:16 am 08:16 Sunny 59 15 55 13 88 88 N N/A 30.12 1020 10 16.0934 N/A
8:36 am 08:36 Sunny 61 16 57 14 88 88 N N/A 30.12 1020 10 16.0934 N/A
8:56 am 08:56 Sunny 63 17 57 14 83 83 N N/A 30.12 1020 10 16.0934 N/A
9:16 am 09:16 Sunny 64 18 57 14 78 78 SSE 3 6 30.12 1020 10 16.0934 N/A
9:36 am 09:36 Sunny 66 19 57 14 73 73 S 5 7 30.12 1020 10 16.0934 N/A
9:56 am 09:56 Sunny 68 20 57 14 69 69 SSE 7 11 30.12 1020 10 16.0934 N/A
10:16 am 10:16 Sunny 70 21 57 14 64 64 SSE 8 13 30.12 1020 10 16.0934 N/A
10:36 am 10:36 Sunny 70 21 57 14 64 64 SSE 6 9 30.09 1019 10 16.0934 N/A
10:56 am 10:56 Sunny 72 22 57 14 61 61 SSW 3 6 30.06 1018 10 16.0934 N/A
11:16 am 11:16 Sunny 73 23 57 14 57 57 SSE 5 7 30.06 1018 10 16.0934 N/A
11:36 am 11:36 Sunny 75 24 55 13 50 50 S 6 9 30.06 1018 10 16.0934 N/A
11:56 am 11:56 Sunny 77 25 55 13 47 47 SSE 7 11 30.03 1017 10 16.0934 N/A
12:16 pm 12:16 Sunny 77 25 55 13 47 47 S 7 11 30.03 1017 10 16.0934 N/A
12:36 pm 12:36 Sunny 79 26 55 13 45 45 SSE 8 13 30.03 1017 10 16.0934 N/A
12:56 pm 12:56 Sunny 79 26 55 13 45 45 S 5 7 30.03 1017 10 16.0934 N/A
1:15 pm 13:15 Sunny 81 27 55 13 42 42 S 5 7 30.03 1017 10 16.0934 N/A
1:36 pm 13:36 Sunny 81 27 55 13 42 42 S 6 9 30.03 1017 10 16.0934 N/A
1:56 pm 13:56 Sunny 82 28 57 14 42 42 WSW 9 15 30.03 1017 10 16.0934 N/A
2:15 pm 14:15 Sunny 82 28 57 14 42 42 S 3 6 30 1016 10 16.0934 N/A
2:36 pm 14:36 Sunny 82 28 55 13 40 40 N N/A 30 1016 10 16.0934 N/A
2:56 pm 14:56 Sunny 82 28 57 14 42 42 WSW 7 11 30 1016 10 16.0934 N/A
3:16 pm 15:16 Sunny 82 28 59 15 45 45 WSW 6 9 30 1016 10 16.0934 N/A
3:36 pm 15:36 Sunny 82 28 57 14 42 42 WNW 6 9 30 1016 10 16.0934 N/A
3:56 pm 15:56 Sunny 82 28 59 15 45 45 W 10 17 30 1016 10 16.0934 N/A
4:16 pm 16:16 Sunny 82 28 59 15 45 45 W 8 13 30 1016 10 16.0934 N/A
4:36 pm 16:36 Sunny 81 27 61 16 51 51 W 7 11 30 1016 10 16.0934 N/A
4:56 pm 16:56 Mostly Cloudy 77 25 63 17 61 61 NW 16 26 30 1016 10 16.0934 N/A
5:16 pm 17:16 Mostly Cloudy 77 25 61 16 57 57 NW 18 30 30.03 1017 10 16.0934 N/A
5:36 pm 17:36 Partly Cloudy 75 24 61 16 61 61 WNW 16 26 30.03 1017 10 16.0934 N/A
5:56 pm 17:56 Sunny 73 23 59 15 61 61 NW 13 20 30.03 1017 10 16.0934 N/A
6:16 pm 18:16 Sunny 73 23 59 15 61 61 NNW 9 15 30.03 1017 10 16.0934 N/A
6:36 pm 18:36 Sunny 73 23 59 15 61 61 NW 12 19 30.03 1017 10 16.0934 N/A
6:56 pm 18:56 Sunny 72 22 59 15 65 65 NW 8 13 30.03 1017 10 16.0934 N/A
7:16 pm 19:16 Clear 70 21 57 14 64 64 NW 7 11 30.06 1018 10 16.0934 N/A
7:36 pm 19:36 Partly Cloudy 68 20 57 14 69 69 NW 6 9 30.06 1018 10 16.0934 N/A
7:56 pm 19:56 Partly Cloudy 70 21 59 15 69 69 NNW 15 24 30.09 1019 10 16.0934 N/A
8:16 pm 20:16 Partly Cloudy 68 20 57 14 69 69 NNW 15 24 30.09 1019 10 16.0934 N/A
8:36 pm 20:36 Clear 64 18 55 13 73 73 NNW 16 26 30.09 1019 10 16.0934 N/A
8:56 pm 20:56 Clear 64 18 55 13 73 73 NNW 10 17 30.12 1020 10 16.0934 N/A
9:16 pm 21:16 Clear 63 17 54 12 73 73 NW 12 19 30.12 1020 10 16.0934 N/A
9:36 pm 21:36 Clear 61 16 54 12 77 77 NNW 16 26 30.12 1020 10 16.0934 N/A
9:56 pm 21:56 Clear 61 16 54 12 77 77 NNW 14 22 30.12 1020 10 16.0934 N/A
10:16 pm 22:16 Clear 59 15 52 11 77 77 NNW 14 22 30.12 1020 10 16.0934 N/A
10:36 pm 22:36 Clear 59 15 52 11 77 77 NW 14 22 30.15 1021 10 16.0934 N/A
10:56 pm 22:56 Clear 57 14 52 11 82 82 NNW 10 17 30.15 1021 10 16.0934 N/A
11:16 pm 23:16 Partly Cloudy 57 14 52 11 82 82 NNW 10 17 30.15 1021 10 16.0934 N/A
11:36 pm 23:36 Clear 57 14 50 10 77 77 NNW 14 22 30.15 1021 10 16.0934 N/A
11:56 pm 23:56 Clear 57 14 48 9 72 72 N 15 24 30.15 1021 10 16.0934 N/A

Powered by AerisWeather